2016-08-12 00:02:37 r, 18.60m,0000000003Hz,0000144135c,0000000.313s, 034.8C,00002195
2016-08-12 00:12:36 r, 18.60m,0000000003Hz,0000144235c,0000000.313s, 034.8C,00002195
2016-08-12 00:22:36 r, 18.62m,0000000003Hz,0000147139c,0000000.319s, 034.8C,00002195
2016-08-12 00:32:36 r, 18.65m,0000000003Hz,0000149728c,0000000.325s, 034.4C,00002195
2016-08-12 00:42:36 r, 18.67m,0000000003Hz,0000152938c,0000000.332s, 034.4C,00002195
2016-08-12 00:52:36 r, 18.68m,0000000003Hz,0000155503c,0000000.337s, 034.4C,00002195
2016-08-12 01:02:36 r, 18.71m,0000000003Hz,0000159296c,0000000.346s, 034.4C,00002195
2016-08-12 01:12:36 r, 18.73m,0000000003Hz,0000161338c,0000000.350s, 034.1C,00002195
2016-08-12 01:22:36 r, 18.74m,0000000003Hz,0000163223c,0000000.354s, 034.1C,00002195
2016-08-12 01:32:36 r, 18.73m,0000000003Hz,0000161488c,0000000.350s, 034.1C,00002195
2016-08-12 01:42:38 r, 18.74m,0000000003Hz,0000162441c,0000000.353s, 034.1C,00002195
2016-08-12 01:52:36 r, 18.73m,0000000003Hz,0000161259c,0000000.350s, 033.8C,00002195
2016-08-12 02:02:36 r, 18.72m,0000000003Hz,0000159132c,0000000.345s, 033.8C,00002195
2016-08-12 02:12:36 r, 18.72m,0000000003Hz,0000159320c,0000000.346s, 033.8C,00002195
2016-08-12 02:22:36 r, 18.70m,0000000003Hz,0000156818c,0000000.340s, 033.8C,00002195
2016-08-12 02:32:36 r, 18.70m,0000000003Hz,0000156471c,0000000.340s, 033.8C,00002195
2016-08-12 02:42:36 r, 18.71m,0000000003Hz,0000158301c,0000000.344s, 033.5C,00002195
2016-08-12 02:52:36 r, 18.70m,0000000003Hz,0000156416c,0000000.339s, 033.5C,00002195
2016-08-12 03:02:36 r, 18.69m,0000000003Hz,0000154633c,0000000.336s, 033.1C,00002195
2016-08-12 03:12:37 r, 18.68m,0000000003Hz,0000154590c,0000000.335s, 033.1C,00002195
2016-08-12 03:22:36 r, 18.69m,0000000003Hz,0000154699c,0000000.336s, 033.1C,00002195
2016-08-12 03:32:36 r, 18.69m,0000000003Hz,0000155489c,0000000.337s, 033.1C,00002195
2016-08-12 03:42:36 r, 18.69m,0000000003Hz,0000154691c,0000000.336s, 032.8C,00002195
2016-08-12 03:52:36 r, 18.68m,0000000003Hz,0000154293c,0000000.335s, 032.8C,00002195
2016-08-12 04:02:36 r, 18.64m,0000000004Hz,0000149043c,0000000.323s, 032.5C,00002195
2016-08-12 04:12:36 r, 18.24m,0000000004Hz,0000102616c,0000000.223s, 032.5C,00002195
2016-08-12 04:22:36 r, 16.95m,0000000015Hz,0000031313c,0000000.068s, 032.5C,00002195
2016-08-12 04:32:36 r, 16.95m,0000000015Hz,0000031465c,0000000.068s, 032.8C,00002195
2016-08-12 04:42:36 r, 16.52m,0000000022Hz,0000021111c,0000000.046s, 032.8C,00002195
2016-08-12 04:52:36 r, 17.94m,0000000006Hz,0000077999c,0000000.169s, 033.1C,00002195
2016-08-12 05:02:36 r, 17.39m,0000000010Hz,0000047179c,0000000.102s, 033.1C,00002195
2016-08-12 05:12:36 r, 16.56m,0000000021Hz,0000021965c,0000000.048s, 033.1C,00002195
2016-08-12 05:22:36 r, 15.36m,0000000063Hz,0000007266c,0000000.016s, 033.1C,00002195
2016-08-12 05:32:36 r, 14.18m,0000000188Hz,0000000000c,0000000.000s, 033.1C,00002195
2016-08-12 05:42:36 r, 12.59m,0000000816Hz,0000000000c,0000000.000s, 033.5C,00002195
2016-08-12 05:52:36 r, 10.61m,0000005069Hz,0000000000c,0000000.000s, 033.5C,00002195
2016-08-12 06:02:36 r, 09.03m,0000021754Hz,0000000000c,0000000.000s, 033.5C,00002195
2016-08-12 06:12:36 r, 07.72m,0000072964Hz,0000000000c,0000000.000s, 033.8C,00002195
2016-08-12 06:22:36 r, 06.91m,0000152615Hz,0000000000c,0000000.000s, 033.8C,00002195
2016-08-12 06:32:36 r, 06.44m,0000235788Hz,0000000000c,0000000.000s, 033.8C,00002195
2016-08-12 06:42:36 r, 00.00m,0000443880Hz,0000000000c,0000000.000s, 033.8C,00002195
2016-08-12 06:52:36 r, 00.00m,0000527759Hz,0000000000c,0000000.000s, 034.1C,00002195
2016-08-12 07:02:36 r, 00.00m,0000564624Hz,0000000000c,0000000.000s, 034.1C,00002195
2016-08-12 07:12:36 r, 00.00m,0000564653Hz,0000000000c,0000000.000s, 034.1C,00002195
2016-08-12 07:22:36 r, 00.00m,0000564624Hz,0000000000c,0000000.000s, 034.4C,00002195
2016-08-12 07:32:36 r, 00.00m,0000564753Hz,0000000000c,0000000.000s, 034.8C,00002195
2016-08-12 07:42:36 r, 00.00m,0000564694Hz,0000000000c,0000000.000s, 035.1C,00002195
2016-08-12 07:52:36 r, 00.00m,0000564741Hz,0000000000c,0000000.000s, 035.7C,00002195
2016-08-12 08:02:36 r, 00.00m,0000564771Hz,0000000000c,0000000.000s, 035.7C,00002195
2016-08-12 08:12:36 r, 00.00m,0000564808Hz,0000000000c,0000000.000s, 036.0C,00002195
2016-08-12 08:22:36 r, 00.00m,0000564884Hz,0000000000c,0000000.000s, 036.7C,00002195
2016-08-12 08:32:36 r, 00.00m,0000564845Hz,0000000000c,0000000.000s, 036.7C,00002195
2016-08-12 08:42:37 r, 00.00m,0000564875Hz,0000000000c,0000000.000s, 037.0C,00002195
2016-08-12 08:52:36 r, 00.00m,0000564945Hz,0000000000c,0000000.000s, 037.0C,00002195
2016-08-12 09:02:36 r, 00.00m,0000564894Hz,0000000000c,0000000.000s, 037.3C,00002195
2016-08-12 09:12:38 r, 00.00m,0000565042Hz,0000000000c,0000000.000s, 037.7C,00002195
2016-08-12 09:22:36 r, 00.00m,0000565162Hz,0000000000c,0000000.000s, 038.6C,00002195
2016-08-12 09:32:37 r, 00.00m,0000565442Hz,0000000000c,0000000.000s, 041.2C,00002195
2016-08-12 09:42:37 r, 00.00m,0000565638Hz,0000000000c,0000000.000s, 043.8C,00002195
2016-08-12 09:52:36 r, 00.00m,0000565590Hz,0000000000c,0000000.000s, 044.4C,00002195
2016-08-12 10:02:37 r, 00.00m,0000565674Hz,0000000000c,0000000.000s, 045.4C,00002195
2016-08-12 10:12:37 r, 00.00m,0000565623Hz,0000000000c,0000000.000s, 045.1C,00002195
2016-08-12 10:22:36 r, 00.00m,0000565530Hz,0000000000c,0000000.000s, 044.8C,00002195
2016-08-12 10:32:36 r, 00.00m,0000565743Hz,0000000000c,0000000.000s, 045.4C,00002195
2016-08-12 10:42:36 r, 00.00m,0000565777Hz,0000000000c,0000000.000s, 047.3C,00002195
2016-08-12 10:52:36 r, 00.00m,0000565908Hz,0000000000c,0000000.000s, 048.3C,00002195
2016-08-12 11:02:37 r, 00.00m,0000565862Hz,0000000000c,0000000.000s, 048.3C,00002195
2016-08-12 11:12:37 r, 00.00m,0000565889Hz,0000000000c,0000000.000s, 048.6C,00002195
2016-08-12 11:22:36 r, 00.00m,0000566038Hz,0000000000c,0000000.000s, 049.6C,00002195
2016-08-12 11:32:36 r, 00.00m,0000566102Hz,0000000000c,0000000.000s, 050.2C,00002195
2016-08-12 11:42:37 r, 00.00m,0000566096Hz,0000000000c,0000000.000s, 050.9C,00002195
2016-08-12 11:52:36 r, 00.00m,0000566129Hz,0000000000c,0000000.000s, 052.2C,00002195
2016-08-12 12:02:36 r, 00.00m,0000566164Hz,0000000000c,0000000.000s, 053.1C,00002195
2016-08-12 12:12:36 r, 00.00m,0000566305Hz,0000000000c,0000000.000s, 055.1C,00002195
2016-08-12 12:22:37 r, 00.00m,0000565871Hz,0000000000c,0000000.000s, 051.5C,00002195
2016-08-12 12:32:36 r, 00.00m,0000565792Hz,0000000000c,0000000.000s, 048.9C,00002195
2016-08-12 12:42:36 r, 00.00m,0000565813Hz,0000000000c,0000000.000s, 048.6C,00002195
2016-08-12 12:52:36 r, 00.00m,0000565475Hz,0000000000c,0000000.000s, 046.0C,00002195
2016-08-12 13:02:36 r, 00.00m,0000565302Hz,0000000000c,0000000.000s, 042.8C,00002195
2016-08-12 13:12:36 r, 00.00m,0000565276Hz,0000000000c,0000000.000s, 041.9C,00002195
2016-08-12 13:22:38 r, 00.00m,0000565299Hz,0000000000c,0000000.000s, 042.8C,00002195
2016-08-12 13:32:37 r, 00.00m,0000565483Hz,0000000000c,0000000.000s, 043.5C,00002195
2016-08-12 13:42:37 r, 00.00m,0000565657Hz,0000000000c,0000000.000s, 045.4C,00002195
2016-08-12 13:52:36 r, 00.00m,0000565547Hz,0000000000c,0000000.000s, 045.4C,00002195
2016-08-12 14:02:36 r, 00.00m,0000565451Hz,0000000000c,0000000.000s, 044.1C,00002195
2016-08-12 14:12:36 r, 00.00m,0000565323Hz,0000000000c,0000000.000s, 043.5C,00002195
2016-08-12 14:22:36 r, 00.00m,0000565500Hz,0000000000c,0000000.000s, 044.1C,00002195
2016-08-12 14:32:36 r, 00.00m,0000565674Hz,0000000000c,0000000.000s, 045.7C,00002195
2016-08-12 14:42:36 r, 00.00m,0000565780Hz,0000000000c,0000000.000s, 047.0C,00002195
2016-08-12 14:52:36 r, 00.00m,0000565669Hz,0000000000c,0000000.000s, 047.0C,00002195
2016-08-12 15:02:36 r, 00.00m,0000565679Hz,0000000000c,0000000.000s, 046.4C,00002195
2016-08-12 15:12:36 r, 00.00m,0000565651Hz,0000000000c,0000000.000s, 046.4C,00002195
2016-08-12 15:22:36 r, 00.00m,0000565812Hz,0000000000c,0000000.000s, 048.3C,00002195
2016-08-12 15:32:36 r, 00.00m,0000565666Hz,0000000000c,0000000.000s, 047.0C,00002195
2016-08-12 15:42:37 r, 00.00m,0000565764Hz,0000000000c,0000000.000s, 048.0C,00002195
2016-08-12 15:52:37 r, 00.00m,0000565914Hz,0000000000c,0000000.000s, 050.2C,00002195
2016-08-12 16:02:36 r, 00.00m,0000565934Hz,0000000000c,0000000.000s, 050.6C,00002195
2016-08-12 16:12:36 r, 00.00m,0000565912Hz,0000000000c,0000000.000s, 050.6C,00002195
2016-08-12 16:22:36 r, 00.00m,0000565562Hz,0000000000c,0000000.000s, 047.0C,00002195
2016-08-12 16:32:36 r, 00.00m,0000565798Hz,0000000000c,0000000.000s, 048.9C,00002195
2016-08-12 16:42:36 r, 00.00m,0000565941Hz,0000000000c,0000000.000s, 050.6C,00002195
2016-08-12 16:52:36 r, 00.00m,0000565869Hz,0000000000c,0000000.000s, 050.6C,00002195
2016-08-12 17:02:36 r, 00.00m,0000565712Hz,0000000000c,0000000.000s, 049.9C,00002195
2016-08-12 17:12:36 r, 00.00m,0000565748Hz,0000000000c,0000000.000s, 048.9C,00002195
2016-08-12 17:22:36 r, 00.00m,0000565527Hz,0000000000c,0000000.000s, 047.0C,00002195
2016-08-12 17:32:36 r, 00.00m,0000565644Hz,0000000000c,0000000.000s, 048.0C,00002195
2016-08-12 17:42:36 r, 00.00m,0000565657Hz,0000000000c,0000000.000s, 048.9C,00002195
2016-08-12 17:52:38 r, 00.00m,0000565689Hz,0000000000c,0000000.000s, 048.3C,00002195
2016-08-12 18:02:36 r, 00.00m,0000565569Hz,0000000000c,0000000.000s, 047.7C,00002195
2016-08-12 18:12:36 r, 00.00m,0000565428Hz,0000000000c,0000000.000s, 047.0C,00002195
2016-08-12 18:22:37 r, 00.00m,0000565490Hz,0000000000c,0000000.000s, 046.4C,00002195
2016-08-12 18:32:36 r, 00.00m,0000565367Hz,0000000000c,0000000.000s, 045.7C,00002195
2016-08-12 18:42:36 r, 00.00m,0000565247Hz,0000000000c,0000000.000s, 045.4C,00002195
2016-08-12 18:52:39 r, 00.00m,0000565211Hz,0000000000c,0000000.000s, 044.8C,00002195
2016-08-12 19:02:37 r, 00.00m,0000565180Hz,0000000000c,0000000.000s, 044.1C,00002195
2016-08-12 19:12:36 r, 00.00m,0000565128Hz,0000000000c,0000000.000s, 043.1C,00002195
2016-08-12 19:22:36 r, 00.00m,0000565112Hz,0000000000c,0000000.000s, 042.5C,00002195
2016-08-12 19:32:36 r, 00.00m,0000564919Hz,0000000000c,0000000.000s, 041.5C,00002195
2016-08-12 19:42:39 r, 00.00m,0000564907Hz,0000000000c,0000000.000s, 040.6C,00002195
2016-08-12 19:52:36 r, 00.00m,0000564862Hz,0000000000c,0000000.000s, 040.2C,00002195
2016-08-12 20:02:36 r, 00.00m,0000564830Hz,0000000000c,0000000.000s, 039.6C,00002195
2016-08-12 20:12:36 r, 00.00m,0000564789Hz,0000000000c,0000000.000s, 038.6C,00002195
2016-08-12 20:22:37 r, 00.00m,0000415202Hz,0000000000c,0000000.000s, 038.0C,00002195
2016-08-12 20:32:36 r, 06.54m,0000217046Hz,0000000000c,0000000.000s, 037.7C,00002195
2016-08-12 20:42:36 r, 07.08m,0000130749Hz,0000000000c,0000000.000s, 037.0C,00002195
2016-08-12 20:52:36 r, 07.89m,0000062190Hz,0000000000c,0000000.000s, 036.4C,00002195
2016-08-12 21:02:36 r, 09.05m,0000021290Hz,0000000000c,0000000.000s, 036.0C,00002195
2016-08-12 21:12:36 r, 10.65m,0000004870Hz,0000000000c,0000000.000s, 035.7C,00002195
2016-08-12 21:22:36 r, 12.47m,0000000916Hz,0000000000c,0000000.000s, 035.4C,00002195
2016-08-12 21:32:36 r, 14.35m,0000000162Hz,0000000000c,0000000.000s, 035.4C,00002195
2016-08-12 21:42:37 r, 15.98m,0000000036Hz,0000012883c,0000000.028s, 035.1C,00002195
2016-08-12 21:52:36 r, 17.12m,0000000012Hz,0000036618c,0000000.079s, 034.8C,00002195
2016-08-12 22:02:39 r, 17.86m,0000000006Hz,0000072783c,0000000.158s, 034.8C,00002195
2016-08-12 22:12:36 r, 18.15m,0000000005Hz,0000094225c,0000000.204s, 034.8C,00002195
2016-08-12 22:22:37 r, 18.42m,0000000004Hz,0000120974c,0000000.263s, 034.4C,00002195
2016-08-12 22:32:37 r, 18.51m,0000000003Hz,0000131178c,0000000.285s, 034.4C,00002195
2016-08-12 22:42:36 r, 17.96m,0000000006Hz,0000079365c,0000000.172s, 034.4C,00002195
2016-08-12 22:52:36 r, 18.12m,0000000005Hz,0000092173c,0000000.200s, 034.4C,00002195
2016-08-12 23:02:36 r, 17.05m,0000000014Hz,0000034513c,0000000.075s, 034.4C,00002195
2016-08-12 23:12:36 r, 16.32m,0000000026Hz,0000017584c,0000000.038s, 034.4C,00002195
2016-08-12 23:22:36 r, 15.83m,0000000041Hz,0000011210c,0000000.024s, 034.8C,00002195
2016-08-12 23:32:36 r, 15.99m,0000000035Hz,0000012943c,0000000.028s, 034.8C,00002195
2016-08-12 23:42:36 r, 16.64m,0000000019Hz,0000023557c,0000000.051s, 034.8C,00002195
2016-08-12 23:52:37 r, 17.06m,0000000013Hz,0000034614c,0000000.075s, 035.1C,00002195
